Change the Weather History Date:

Tuesday, April 9, 2013

  Actual Average (KGUS) Record (KGUS)
Temperature  
Mean Temperature 64 °F -  
Max Temperature 78 °F 58 °F 82 °F (2001)
Min Temperature 51 °F 39 °F 21 °F (1997)
Growing Degree Days 14 (Base 50)    
Moisture  
Dew Point 55 °F    
Average Humidity 72    
Maximum Humidity 94    
Minimum Humidity 47    
Precipitation  
Precipitation 0.47 in - - ()
Sea Level Pressure  
Sea Level Pressure 29.92 in    
Wind  
Wind Speed 11 mph (South)    
Max Wind Speed 29 mph    
Max Gust Speed 38 mph    
Visibility 10 miles    
Events      
Averages and records for this station are not official NWS values.
T = Trace of Precipitation, MM = Missing Value Source: NWS Daily Summary

Daily Weather History Graph

Daily Weather History Graph

Search for Another Location

Airport or City:

Trip Planner

Search our weather history database for the weather conditions in past years. The results will help you decide how hot, cold, wet, or windy it might be!

Date:

Astronomy

Apr. 09, 2013 Rise Set
Actual Time 6:14 AM CDT 7:17 PM CDT
Civil Twilight 5:46 AM CDT 7:45 PM CDT
Nautical Twilight 5:13 AM CDT 8:18 PM CDT
Astronomical Twilight 4:38 AM CDT 8:53 PM CDT
Moon 5:37 AM CDT (4/9) 6:52 PM CDT (4/9)
Length of Visible Light 13h 58m
Length of Day
13h 02m
Waning Crescent, 1% of the Moon is Illuminated
Apr 9
Waning Crescent
Apr 10
New
Apr 18
First Quarter
Apr 25
Full
May 2
Last Quarter

Hourly Weather History & Observations

Time (CDT) Temp. Dew Point Humidity Pressure Visibility Wind Dir Wind Speed Gust Speed Precip Events Conditions
12:15 AM 55.4 °F 51.8 °F 88% 29.98 in 9.0 mi East 5.8 mph - N/A   Mostly Cloudy
12:35 AM 55.4 °F 51.8 °F 88% 29.98 in 10.0 mi East 3.5 mph - N/A   Overcast
12:55 AM 55.4 °F 51.8 °F 88% 29.99 in 10.0 mi ESE 5.8 mph - N/A   Overcast
1:15 AM 55.4 °F 51.8 °F 88% 29.99 in 10.0 mi NE 10.4 mph - N/A   Mostly Cloudy
1:35 AM 55.4 °F 51.8 °F 88% 29.98 in 10.0 mi East 6.9 mph - N/A   Scattered Clouds
1:55 AM 53.6 °F 51.8 °F 94% 29.97 in 9.0 mi East 6.9 mph - N/A   Clear
2:15 AM 55.4 °F 51.8 °F 88% 29.97 in 9.0 mi ESE 9.2 mph - N/A   Clear
2:35 AM 53.6 °F 51.8 °F 94% 29.97 in 9.0 mi ESE 9.2 mph - N/A   Clear
2:55 AM 53.6 °F 50.0 °F 88% 29.97 in 7.0 mi East 8.1 mph - N/A   Clear
3:15 AM 53.6 °F 50.0 °F 88% 29.97 in 7.0 mi East 6.9 mph - N/A   Clear
3:35 AM 53.6 °F 50.0 °F 88% 29.97 in 9.0 mi ENE 9.2 mph - N/A   Clear
3:55 AM 53.6 °F 48.2 °F 82% 29.97 in 10.0 mi East 9.2 mph - N/A   Clear
4:15 AM 53.6 °F 48.2 °F 82% 29.98 in 10.0 mi East 8.1 mph - N/A   Clear
4:35 AM 53.6 °F 48.2 °F 82% 29.97 in 10.0 mi East 11.5 mph - N/A   Clear
4:55 AM 53.6 °F 48.2 °F 82% 29.97 in 10.0 mi East 11.5 mph - N/A   Clear
5:15 AM 53.6 °F 48.2 °F 82% 29.97 in 10.0 mi ESE 8.1 mph - N/A   Clear
5:35 AM 53.6 °F 48.2 °F 82% 29.97 in 10.0 mi East 9.2 mph - N/A   Mostly Cloudy
5:55 AM 53.6 °F 48.2 °F 82% 29.97 in 10.0 mi ESE 9.2 mph - N/A   Mostly Cloudy
6:15 AM 53.6 °F 48.2 °F 82% 29.97 in 7.0 mi ESE 8.1 mph - N/A   Partly Cloudy
6:35 AM 51.8 °F 48.2 °F 88% 29.98 in 5.0 mi ESE 8.1 mph - N/A   Clear
6:55 AM 53.6 °F 50.0 °F 88% 29.99 in 6.0 mi East 9.2 mph - N/A   Clear
7:15 AM 53.6 °F 50.0 °F 88% 29.99 in 7.0 mi ESE 10.4 mph - N/A   Mostly Cloudy
7:35 AM 53.6 °F 51.8 °F 94% 29.98 in 6.0 mi East 11.5 mph - N/A   Overcast
7:55 AM 55.4 °F 51.8 °F 88% 29.98 in 7.0 mi ESE 9.2 mph - N/A   Overcast
8:15 AM 55.4 °F 51.8 °F 88% 29.97 in 6.0 mi SE 10.4 mph - N/A   Mostly Cloudy
8:35 AM 57.2 °F 55.4 °F 94% 29.97 in 8.0 mi SSE 9.2 mph - N/A   Mostly Cloudy
8:55 AM 59.0 °F 53.6 °F 82% 29.95 in 10.0 mi SSE 10.4 mph - N/A   Overcast
9:15 AM 60.8 °F 55.4 °F 82% 29.95 in 10.0 mi South 12.7 mph - N/A   Overcast
9:35 AM 62.6 °F 55.4 °F 77% 29.96 in 10.0 mi South 11.5 mph - N/A   Overcast
9:55 AM 64.4 °F 57.2 °F 77% 29.94 in 10.0 mi South 12.7 mph - N/A   Overcast
10:15 AM 66.2 °F 57.2 °F 73% 29.94 in 10.0 mi South 13.8 mph - N/A   Mostly Cloudy
10:35 AM 69.8 °F 57.2 °F 64% 29.94 in 10.0 mi South 13.8 mph - N/A   Mostly Cloudy
10:55 AM 73.4 °F 60.8 °F 65% 29.93 in 10.0 mi South 18.4 mph - N/A   Partly Cloudy
11:15 AM 75.2 °F 60.8 °F 61% 29.92 in 10.0 mi SSW 18.4 mph - N/A   Partly Cloudy
11:35 AM 75.2 °F 60.8 °F 61% 29.90 in 10.0 mi SW 19.6 mph 28.8 mph N/A   Clear
11:55 AM 77.0 °F 60.8 °F 57% 29.89 in 10.0 mi SW 23.0 mph 31.1 mph N/A   Clear
12:15 PM 75.2 °F 60.8 °F 61% 29.89 in 10.0 mi SSW 27.6 mph 32.2 mph N/A   Scattered Clouds
12:35 PM 77.0 °F 60.8 °F 57% 29.88 in 10.0 mi SSW 25.3 mph 32.2 mph N/A   Mostly Cloudy
12:55 PM 75.2 °F 60.8 °F 61% 29.87 in 10.0 mi SSW 21.9 mph 27.6 mph N/A   Mostly Cloudy
1:15 PM 77.0 °F 59.0 °F 54% 29.87 in 10.0 mi SSW 23.0 mph 33.4 mph N/A   Mostly Cloudy
1:35 PM 77.0 °F 60.8 °F 57% 29.86 in 10.0 mi SSW 28.8 mph 38.0 mph N/A   Mostly Cloudy
1:55 PM 78.8 °F 59.0 °F 51% 29.85 in 10.0 mi SW 25.3 mph 36.8 mph N/A   Mostly Cloudy
2:15 PM 78.8 °F 59.0 °F 51% 29.85 in 10.0 mi SW 27.6 mph 38.0 mph N/A   Scattered Clouds
2:35 PM 78.8 °F 57.2 °F 47% 29.87 in 10.0 mi SW 27.6 mph 36.8 mph N/A   Scattered Clouds
2:55 PM 78.8 °F 59.0 °F 51% 29.87 in 10.0 mi SW 20.7 mph 29.9 mph N/A   Mostly Cloudy
3:15 PM 78.8 °F 57.2 °F 47% 29.87 in 10.0 mi SW 25.3 mph 35.7 mph N/A   Mostly Cloudy
3:35 PM 78.8 °F 57.2 °F 47% 29.87 in 10.0 mi SW 24.2 mph 31.1 mph N/A   Mostly Cloudy
3:55 PM 75.2 °F 55.4 °F 50% 29.87 in 10.0 mi SW 24.2 mph 34.5 mph N/A   Mostly Cloudy
4:15 PM 77.0 °F 57.2 °F 50% 29.87 in 10.0 mi SW 26.5 mph 32.2 mph N/A   Mostly Cloudy
4:35 PM 75.2 °F 57.2 °F 53% 29.86 in 10.0 mi SW 21.9 mph 32.2 mph N/A   Mostly Cloudy
4:55 PM 75.2 °F 57.2 °F 53% 29.86 in 10.0 mi WSW 24.2 mph 28.8 mph N/A   Mostly Cloudy
5:15 PM 75.2 °F 57.2 °F 53% 29.87 in 10.0 mi WSW 21.9 mph 32.2 mph N/A   Overcast
5:35 PM 73.4 °F 57.2 °F 57% 29.87 in 10.0 mi SW 15.0 mph - N/A   Overcast
5:55 PM 73.4 °F 57.2 °F 57% 29.88 in 10.0 mi SW 13.8 mph - N/A   Overcast
6:15 PM 73.4 °F 57.2 °F 57% 29.88 in 10.0 mi SW 12.7 mph - N/A   Overcast
6:35 PM 73.4 °F 57.2 °F 57% 29.88 in 10.0 mi SW 16.1 mph 23.0 mph N/A   Overcast
6:55 PM 71.6 °F 57.2 °F 60% 29.88 in 10.0 mi SW 12.7 mph - N/A   Overcast
7:15 PM 71.6 °F 57.2 °F 60% 29.88 in 10.0 mi WSW 12.7 mph - N/A   Overcast
7:35 PM 69.8 °F 57.2 °F 64% 29.88 in 10.0 mi WSW 9.2 mph - N/A   Overcast
7:55 PM 69.8 °F 59.0 °F 68% 29.89 in 10.0 mi WSW 8.1 mph - N/A   Overcast
8:15 PM 69.8 °F 59.0 °F 68% 29.89 in 10.0 mi WSW 6.9 mph - N/A   Overcast
8:35 PM 68.0 °F 59.0 °F 73% 29.90 in 10.0 mi WSW 6.9 mph - N/A   Overcast
8:55 PM 68.0 °F 59.0 °F 73% 29.90 in 10.0 mi SW 6.9 mph - N/A   Overcast
9:15 PM 68.0 °F 59.0 °F 73% 29.90 in 10.0 mi SW 3.5 mph - N/A   Overcast
9:55 PM 68.0 °F 59.0 °F 73% 29.89 in 10.0 mi SSW 6.9 mph - N/A   Overcast
10:15 PM 64.4 °F 59.0 °F 83% 29.89 in 10.0 mi South 5.8 mph - N/A   Mostly Cloudy
10:35 PM 64.4 °F 57.2 °F 77% 29.88 in 10.0 mi SSW 5.8 mph - N/A   Mostly Cloudy
10:55 PM 64.4 °F 59.0 °F 83% 29.87 in 10.0 mi SSW 8.1 mph - N/A   Mostly Cloudy
11:15 PM 66.2 °F 57.2 °F 73% 29.88 in 10.0 mi SSW 9.2 mph - N/A   Mostly Cloudy
11:35 PM 66.2 °F 59.0 °F 78% 29.88 in 10.0 mi SSW 11.5 mph - N/A   Mostly Cloudy
11:55 PM 69.8 °F 59.0 °F 68% 29.89 in 10.0 mi SW 13.8 mph - N/A   Overcast